This is the latest recevied weather packets stored in our database for station/object K9UO. If no packets are shown the sender has not sent any weather packets the latest 10 day(s).
| Time | Temp. | Humidity | Pressure | Rain* | Wind** | Luminosity | Snow |
|---|---|---|---|---|---|---|---|
| 1777759252 | 8.33° C | 48% | 1018.1 hPa | 0 mm | - | - | - |
| 1777758348 | 8.33° C | 48% | 1018.1 hPa | 0 mm | - | - | - |
| 1777757443 | 8.33° C | 48% | 1018.1 hPa | 0 mm | - | - | - |
| 1777756546 | 8.33° C | 50% | 1018.1 hPa | 0 mm | - | - | - |
| 1777755634 | 8.33° C | 47% | 1018 hPa | 0 mm | - | - | - |
| 1777754731 | 8.33° C | 48% | 1018.1 hPa | 0 mm | - | - | - |
| 1777753824 | 7.78° C | 51% | 1018.1 hPa | 0 mm | - | - | - |
| 1777752920 | 7.78° C | 51% | 1018.2 hPa | 0 mm | - | - | - |
| 1777752016 | 8.33° C | 52% | 1018.2 hPa | 0 mm | - | - | - |
| 1777751113 | 7.78° C | 53% | 1018.4 hPa | 0 mm | - | - | - |
| 1777750209 | 7.78° C | 52% | 1018.4 hPa | 0 mm | - | - | - |
| 1777749306 | 7.78° C | 51% | 1018.6 hPa | 0 mm | - | - | - |
| 1777748459 | 7.78° C | 51% | 1018.7 hPa | 0 mm | - | - | - |
| 1777747554 | 7.78° C | 51% | 1018.6 hPa | 0 mm | - | - | - |
| 1777746650 | 7.78° C | 51% | 1018.7 hPa | 0 mm | - | - | - |
| 1777745750 | 7.78° C | 51% | 1018.8 hPa | 0 mm | - | - | - |
| 1777744841 | 7.78° C | 50% | 1018.8 hPa | 0 mm | - | - | - |
| 1777743936 | 7.78° C | 50% | 1019 hPa | 0 mm | - | - | - |
| 1777743042 | 7.78° C | 52% | 1019.1 hPa | 0 mm | - | - | - |
| 1777742130 | 7.78° C | 48% | 1019.2 hPa | 0 mm | - | - | - |
| 1777741225 | 7.22° C | 49% | 1019.2 hPa | 0 mm | - | - | - |
| 1777740318 | 7.22° C | 52% | 1019.3 hPa | 0 mm | - | - | - |
| 1777739421 | 7.22° C | 48% | 1019.5 hPa | 0 mm | - | - | - |
| 1777738509 | 7.22° C | 51% | 1019.5 hPa | 0 mm | - | - | - |
| 1777737606 | 6.67° C | 52% | 1019.5 hPa | 0 mm | - | - | - |
* Rain latest hour (hover to see other rain measurements)
** Current wind speed in m/s (hover to see current wind gust speed)